| time (UTC) | temp C | wind direction | speed KPH | gust KPH | rain 1hr cm | rain 24hr cm | rain mn cm | humidity % | barometer mb |
| 20260901081031 | 15 | 240 | 0.0 | 0.0 | 0.00 | 0.00 | 0.00 | 96 | 1012.7 |
| 20260901080531 | 15 | 240 | 0.0 | 0.0 | 0.00 | 0.00 | 0.00 | 96 | 1012.7 |
| 20260901080031 | 15 | 190 | 0.0 | 0.0 | 0.00 | 0.00 | 0.00 | 96 | 1012.7 |
| 20260901075531 | 15 | 190 | 0.0 | 0.0 | 0.00 | 0.00 | 0.00 | 96 | 1012.6 |
| 20260901075030 | 15 | 190 | 1.6 | 0.0 | 0.00 | 0.00 | 0.00 | 95 | 1012.6 |
| 20260901074533 | 15 | 190 | 0.0 | 0.0 | 0.00 | 0.00 | 0.00 | 96 | 1012.6 |
| 20260901074028 | 15 | 287 | 0.0 | 0.0 | 0.00 | 0.00 | 0.00 | 96 | 1012.5 |
| 20260901073528 | 15 | 287 | 1.6 | 0.0 | 0.00 | 0.00 | 0.00 | 96 | 1012.5 |
| 20260901073028 | 15 | 309 | 1.6 | 0.0 | 0.00 | 0.00 | 0.00 | 96 | 1012.5 |
| 20260901072530 | 15 | 284 | 0.0 | 0.0 | 0.00 | 0.00 | 0.00 | 96 | 1012.5 |
| 20260901072026 | 15 | 284 | 0.0 | 0.0 | 0.00 | 0.00 | 0.00 | 96 | 1012.5 |
| 20260901071526 | 15 | 293 | 0.0 | 0.0 | 0.00 | 0.00 | 0.00 | 96 | 1012.5 |
| 20260901071028 | 15 | 204 | 0.0 | 0.0 | 0.00 | 0.00 | 0.00 | 96 | 1012.6 |
| 20260901070527 | 16 | 204 | 0.0 | 0.0 | 0.00 | 0.00 | 0.00 | 95 | 1012.6 |
| 20260901070029 | 16 | 162 | 0.0 | 0.0 | 0.00 | 0.00 | 0.00 | 96 | 1012.6 |
| 20260901065525 | 16 | 162 | 1.6 | 0.0 | 0.00 | 0.00 | 0.00 | 96 | 1012.5 |
| 20260901065029 | 16 | 178 | 1.6 | 0.0 | 0.00 | 0.00 | 0.00 | 96 | 1012.5 |
| 20260901064536 | 16 | 216 | 1.6 | 0.0 | 0.00 | 0.00 | 0.00 | 96 | 1012.5 |
| 20260901064024 | 16 | 168 | 1.6 | 0.0 | 0.00 | 0.00 | 0.00 | 96 | 1012.5 |
| 20260901063527 | 16 | 181 | 1.6 | 0.0 | 0.00 | 0.00 | 0.00 | 96 | 1012.5 |
| 20260901063028 | 16 | 155 | 1.6 | 0.0 | 0.00 | 0.00 | 0.00 | 96 | 1012.5 |
| 20260901062523 | 16 | 160 | 1.6 | 0.0 | 0.00 | 0.00 | 0.00 | 96 | 1012.1 |
| 20260901062028 | 16 | 196 | 1.6 | 0.0 | 0.00 | 0.00 | 0.00 | 96 | 1012.1 |
| 20260901061523 | 16 | 202 | 1.6 | 0.0 | 0.00 | 0.00 | 0.00 | 96 | 1012.1 |
| 20260901061023 | 16 | 205 | 1.6 | 0.0 | 0.00 | 0.00 | 0.00 | 95 | 1012.2 |
| 20260901060522 | 16 | 207 | 1.6 | 0.0 | 0.00 | 0.00 | 0.00 | 95 | 1012.2 |
| 20260901060022 | 16 | 195 | 1.6 | 0.0 | 0.00 | 0.00 | 0.00 | 95 | 1012.2 |
| 20260901055523 | 16 | 198 | 1.6 | 0.0 | 0.00 | 0.00 | 0.00 | 95 | 1012.2 |
| 20260901055021 | 16 | 195 | 1.6 | 0.0 | 0.00 | 0.00 | 0.00 | 95 | 1012.2 |
| 20260901054523 | 16 | 201 | 1.6 | 0.0 | 0.00 | 0.00 | 0.00 | 95 | 1012.2 |
| 20260901054022 | 16 | 234 | 1.6 | 0.0 | 0.00 | 0.00 | 0.00 | 95 | 1012.1 |
| 20260901053522 | 16 | 199 | 1.6 | 0.0 | 0.00 | 0.00 | 0.00 | 95 | 1012.1 |
| 20260901053020 | 16 | 227 | 3.2 | 0.0 | 0.00 | 0.00 | 0.00 | 95 | 1012.1 |
| 20260901052519 | 16 | 206 | 3.2 | 0.0 | 0.00 | 0.00 | 0.00 | 95 | 1012.1 |
| 20260901052019 | 16 | 208 | 3.2 | 0.0 | 0.00 | 0.00 | 0.00 | 95 | 1012.1 |
| 20260901051519 | 16 | 198 | 1.6 | 0.0 | 0.00 | 0.00 | 0.00 | 95 | 1012.1 |
| 20260901051019 | 16 | 211 | 1.6 | 0.0 | 0.00 | 0.00 | 0.00 | 95 | 1012.2 |
| 20260901050519 | 16 | 200 | 1.6 | 0.0 | 0.00 | 0.00 | 0.00 | 95 | 1012.2 |
| 20260901050020 | 16 | 263 | 3.2 | 0.0 | 0.00 | 0.00 | 0.00 | 95 | 1012.2 |
| 20260901045523 | 16 | 217 | 3.2 | 0.0 | 0.00 | 0.00 | 0.00 | 95 | 1012.2 |
| 20260901045018 | 16 | 279 | 1.6 | 0.0 | 0.00 | 0.00 | 0.00 | 95 | 1012.2 |
| 20260901044518 | 16 | 232 | 1.6 | 0.0 | 0.00 | 0.00 | 0.00 | 95 | 1012.2 |
| 20260901044018 | 16 | 199 | 1.6 | 0.0 | 0.00 | 0.00 | 0.00 | 95 | 1012.1 |
| 20260901043520 | 16 | 199 | 1.6 | 0.0 | 0.00 | 0.00 | 0.00 | 95 | 1012.1 |
| 20260901043019 | 16 | 200 | 1.6 | 0.0 | 0.00 | 0.00 | 0.00 | 95 | 1012.1 |
| 20260901042516 | 16 | 219 | 1.6 | 0.0 | 0.00 | 0.00 | 0.00 | 95 | 1012.0 |
| 20260901042016 | 16 | 252 | 1.6 | 0.0 | 0.00 | 0.00 | 0.00 | 95 | 1012.0 |
| 20260901041516 | 16 | 269 | 3.2 | 0.0 | 0.00 | 0.00 | 0.00 | 94 | 1012.0 |
| 20260901041016 | 16 | 232 | 3.2 | 0.0 | 0.00 | 0.00 | 0.00 | 94 | 1011.7 |
| 20260901040516 | 16 | 270 | 3.2 | 0.0 | 0.00 | 0.00 | 0.00 | 94 | 1011.7 |
| 20260901040016 | 16 | 267 | 6.4 | 0.0 | 0.00 | 0.00 | 0.00 | 94 | 1011.7 |
| 20260901035516 | 16 | 273 | 3.2 | 0.0 | 0.00 | 0.00 | 0.00 | 94 | 1011.6 |
| 20260901035015 | 16 | 275 | 1.6 | 0.0 | 0.00 | 0.00 | 0.00 | 94 | 1011.6 |
| 20260901034517 | 16 | 16 | 0.0 | 0.0 | 0.00 | 0.00 | 0.00 | 94 | 1011.6 |
| 20260901034016 | 16 | 15 | 1.6 | 0.0 | 0.00 | 0.00 | 0.00 | 93 | 1011.1 |
| 20260901033514 | 16 | 197 | 1.6 | 0.0 | 0.00 | 0.00 | 0.00 | 93 | 1011.1 |
| 20260901033014 | 16 | 232 | 1.6 | 0.0 | 0.00 | 0.00 | 0.00 | 93 | 1011.1 |
| 20260901032514 | 16 | 187 | 1.6 | 0.0 | 0.00 | 0.00 | 0.00 | 93 | 1011.0 |
| 20260901032014 | 16 | 271 | 3.2 | 0.0 | 0.00 | 0.00 | 0.00 | 93 | 1011.0 |
| 20260901031513 | 16 | 307 | 3.2 | 0.0 | 0.00 | 0.00 | 0.00 | 92 | 1011.0 |
| 20260901031013 | 16 | 318 | 1.6 | 0.0 | 0.00 | 0.00 | 0.00 | 92 | 1010.9 |
| 20260901030514 | 17 | 187 | 3.2 | 0.0 | 0.00 | 0.00 | 0.00 | 92 | 1010.9 |
| 20260901030013 | 17 | 179 | 3.2 | 0.0 | 0.00 | 0.00 | 0.00 | 92 | 1010.9 |
| 20260901025516 | 17 | 219 | 3.2 | 0.0 | 0.00 | 0.00 | 0.00 | 91 | 1010.7 |
| 20260901025013 | 17 | 143 | 4.8 | 0.0 | 0.00 | 0.00 | 0.00 | 90 | 1010.7 |
| 20260901024513 | 16 | 201 | 6.4 | 0.0 | 0.00 | 0.00 | 0.00 | 90 | 1010.7 |
| 20260901024015 | 16 | 209 | 6.4 | 0.0 | 0.00 | 0.00 | 0.00 | 90 | 1010.6 |
| 20260901023511 | 17 | 197 | 4.8 | 0.0 | 0.00 | 0.00 | 0.00 | 90 | 1010.6 |
| 20260901023026 | 17 | 203 | 4.8 | 0.0 | 0.00 | 0.00 | 0.00 | 90 | 1010.6 |
| 20260901022511 | 17 | 210 | 4.8 | 0.0 | 0.00 | 0.00 | 0.00 | 91 | 1010.7 |
| 20260901022012 | 17 | 273 | 4.8 | 0.0 | 0.00 | 0.00 | 0.00 | 90 | 1010.7 |
| 20260901021520 | 17 | 242 | 4.8 | 0.0 | 0.00 | 0.00 | 0.00 | 89 | 1010.7 |
| 20260901021011 | 17 | 245 | 4.8 | 0.0 | 0.00 | 0.00 | 0.00 | 89 | 1010.8 |
| 20260901020511 | 17 | 271 | 3.2 | 0.0 | 0.00 | 0.00 | 0.00 | 89 | 1010.8 |
| 20260901020011 | 17 | 159 | 4.8 | 0.0 | 0.00 | 0.00 | 0.00 | 88 | 1010.8 |
| 20260901015510 | 18 | 176 | 4.8 | 0.0 | 0.00 | 0.00 | 0.00 | 88 | 1010.7 |
| 20260901015010 | 18 | 171 | 4.8 | 0.0 | 0.00 | 0.00 | 0.00 | 87 | 1010.7 |
| 20260901014511 | 18 | 194 | 4.8 | 0.0 | 0.00 | 0.00 | 0.00 | 86 | 1010.7 |
| 20260901014011 | 18 | 178 | 4.8 | 0.0 | 0.00 | 0.00 | 0.00 | 85 | 1010.8 |
| 20260901013513 | 18 | 200 | 4.8 | 0.0 | 0.00 | 0.00 | 0.00 | 84 | 1010.8 |
| 20260901013010 | 19 | 188 | 3.2 | 0.0 | 0.00 | 0.00 | 0.00 | 84 | 1010.8 |
| 20260901012513 | 19 | 199 | 4.8 | 0.0 | 0.00 | 0.00 | 0.00 | 83 | 1010.8 |
| 20260901012013 | 20 | 219 | 6.4 | 0.0 | 0.00 | 0.00 | 0.00 | 82 | 1010.8 |
| 20260901011509 | 20 | 219 | 6.4 | 0.0 | 0.00 | 0.00 | 0.00 | 81 | 1010.8 |
| 20260901011011 | 20 | 159 | 4.8 | 0.0 | 0.00 | 0.00 | 0.00 | 81 | 1010.9 |
| 20260901010509 | 20 | 232 | 4.8 | 0.0 | 0.00 | 0.00 | 0.00 | 79 | 1010.9 |
| 20260901010010 | 20 | 232 | 6.4 | 0.0 | 0.00 | 0.00 | 0.00 | 80 | 1010.9 |
| 20260901005510 | 20 | 148 | 8.0 | 0.0 | 0.00 | 0.00 | 0.00 | 80 | 1010.9 |
| 20260901005009 | 20 | 209 | 9.7 | 0.0 | 0.00 | 0.00 | 0.00 | 77 | 1010.9 |
| 20260901004509 | 21 | 200 | 8.0 | 0.0 | 0.00 | 0.00 | 0.00 | 76 | 1010.9 |
| 20260901004009 | 21 | 175 | 6.4 | 0.0 | 0.00 | 0.00 | 0.00 | 74 | 1010.8 |
| 20260901003510 | 21 | 180 | 8.0 | 0.0 | 0.00 | 0.00 | 0.00 | 74 | 1010.8 |
| 20260901003008 | 21 | 165 | 8.0 | 0.0 | 0.00 | 0.00 | 0.00 | 70 | 1010.8 |
| 20260901002508 | 22 | 206 | 8.0 | 0.0 | 0.00 | 0.00 | 0.00 | 68 | 1010.9 |
| 20260901002009 | 22 | 222 | 8.0 | 0.0 | 0.00 | 0.00 | 0.00 | 66 | 1010.9 |
| 20260901001507 | 22 | 271 | 8.0 | 0.0 | 0.00 | 0.00 | 0.00 | 69 | 1010.9 |
| 20260901001007 | 22 | 216 | 8.0 | 0.0 | 0.00 | 0.00 | 0.00 | 70 | 1010.7 |
| 20260901000508 | 22 | 192 | 6.4 | 0.0 | 0.00 | 0.00 | 0.00 | 71 | 1010.7 |
| 20260901000008 | 22 | 224 | 6.4 | 0.0 | 0.00 | 0.00 | 0.00 | 74 | 1010.7 |
| 20260831235508 | 22 | 212 | 8.0 | 0.0 | 0.00 | 0.00 | 0.00 | 71 | 1011.0 |
| 20260831235008 | 23 | 219 | 6.4 | 0.0 | 0.00 | 0.00 | 0.00 | 72 | 1011.0 |
| 20260831234507 | 23 | 184 | 8.0 | 0.0 | 0.00 | 0.00 | 0.00 | 71 | 1011.0 |
| 20260831234008 | 23 | 200 | 8.0 | 0.0 | 0.00 | 0.00 | 0.00 | 67 | 1011.0 |
| 20260831233507 | 23 | 203 | 6.4 | 0.0 | 0.00 | 0.00 | 0.00 | 65 | 1011.0 |
| 20260831233011 | 23 | 173 | 4.8 | 0.0 | 0.00 | 0.00 | 0.00 | 66 | 1011.0 |
| 20260831232506 | 23 | 234 | 4.8 | 0.0 | 0.00 | 0.00 | 0.00 | 64 | 1010.8 |
| 20260831232006 | 23 | 186 | 4.8 | 0.0 | 0.00 | 0.00 | 0.00 | 67 | 1010.8 |
| 20260831231508 | 23 | 194 | 4.8 | 0.0 | 0.00 | 0.00 | 0.00 | 66 | 1010.8 |
| 20260831231006 | 23 | 197 | 3.2 | 0.0 | 0.00 | 0.00 | 0.00 | 69 | 1010.9 |
| 20260831230505 | 23 | 227 | 3.2 | 0.0 | 0.00 | 0.00 | 0.00 | 69 | 1010.9 |
| 20260831230005 | 23 | 196 | 4.8 | 0.0 | 0.00 | 0.00 | 0.00 | 71 | 1010.9 |
| 20260831225504 | 23 | 202 | 4.8 | 0.0 | 0.00 | 0.00 | 0.00 | 69 | 1011.0 |
| 20260831225004 | 23 | 155 | 4.8 | 0.0 | 0.00 | 0.00 | 0.00 | 70 | 1011.0 |
| 20260831224504 | 23 | 184 | 4.8 | 0.0 | 0.00 | 0.00 | 0.00 | 71 | 1011.0 |
| 20260831224004 | 23 | 224 | 4.8 | 0.0 | 0.00 | 0.00 | 0.00 | 70 | 1011.1 |
| 20260831223503 | 23 | 171 | 4.8 | 0.0 | 0.00 | 0.00 | 0.00 | 74 | 1011.1 |
| 20260831223002 | 23 | 191 | 4.8 | 0.0 | 0.00 | 0.00 | 0.00 | 72 | 1011.1 |
| 20260831222503 | 23 | 217 | 4.8 | 0.0 | 0.00 | 0.00 | 0.00 | 72 | 1011.3 |
| 20260831222002 | 23 | 196 | 6.4 | 0.0 | 0.00 | 0.00 | 0.00 | 72 | 1011.3 |
| 20260831221503 | 23 | 192 | 6.4 | 0.0 | 0.00 | 0.00 | 0.00 | 72 | 1011.3 |
| 20260831221002 | 23 | 211 | 6.4 | 0.0 | 0.00 | 0.00 | 0.00 | 71 | 1011.4 |
| 20260831220504 | 23 | 182 | 6.4 | 0.0 | 0.00 | 0.00 | 0.00 | 74 | 1011.4 |
| 20260831220002 | 23 | 205 | 6.4 | 0.0 | 0.00 | 0.00 | 0.00 | 73 | 1011.4 |
| 20260831215504 | 23 | 240 | 6.4 | 0.0 | 0.00 | 0.00 | 0.00 | 75 | 1011.7 |
| 20260831215002 | 23 | 205 | 6.4 | 0.0 | 0.00 | 0.00 | 0.00 | 73 | 1011.7 |
| 20260831214501 | 23 | 222 | 6.4 | 0.0 | 0.00 | 0.00 | 0.00 | 73 | 1011.7 |
| 20260831214000 | 23 | 175 | 4.8 | 0.0 | 0.00 | 0.00 | 0.00 | 74 | 1011.7 |
| 20260831213600 | 23 | 218 | 4.8 | 0.0 | 0.00 | 0.00 | 0.00 | 75 | 1011.7 |
| 20260831213100 | 23 | 160 | 4.8 | 0.0 | 0.00 | 0.00 | 0.00 | 77 | 1011.7 |
| 20260831212559 | 23 | 202 | 4.8 | 0.0 | 0.00 | 0.00 | 0.00 | 76 | 1011.8 |
| 20260831212059 | 23 | 202 | 6.4 | 0.0 | 0.00 | 0.00 | 0.00 | 75 | 1011.8 |
| 20260831211559 | 23 | 155 | 6.4 | 0.0 | 0.00 | 0.00 | 0.00 | 74 | 1011.8 |
| 20260831211057 | 22 | 207 | 6.4 | 0.0 | 0.00 | 0.00 | 0.00 | 76 | 1011.9 |
| 20260831210557 | 22 | 207 | 4.8 | 0.0 | 0.00 | 0.00 | 0.00 | 74 | 1011.9 |
| 20260831210058 | 22 | 209 | 6.4 | 0.0 | 0.00 | 0.00 | 0.00 | 74 | 1011.9 |
| 20260831205557 | 22 | 219 | 6.4 | 0.0 | 0.00 | 0.00 | 0.00 | 76 | 1011.9 |
| 20260831205057 | 22 | 196 | 6.4 | 0.0 | 0.00 | 0.00 | 0.00 | 77 | 1011.9 |
| 20260831204557 | 22 | 205 | 4.8 | 0.0 | 0.00 | 0.00 | 0.00 | 79 | 1011.9 |
| 20260831204100 | 22 | 207 | 6.4 | 0.0 | 0.00 | 0.00 | 0.00 | 78 | 1012.0 |
| 20260831203557 | 22 | 200 | 6.4 | 0.0 | 0.00 | 0.00 | 0.00 | 80 | 1012.0 |
| 20260831203056 | 22 | 262 | 6.4 | 0.0 | 0.00 | 0.00 | 0.00 | 79 | 1012.0 |
| 20260831202555 | 22 | 156 | 6.4 | 0.0 | 0.00 | 0.00 | 0.00 | 79 | 1012.1 |
| 20260831202056 | 22 | 229 | 4.8 | 0.0 | 0.00 | 0.00 | 0.00 | 78 | 1012.1 |
| 20260831201556 | 23 | 223 | 4.8 | 0.0 | 0.00 | 0.00 | 0.00 | 78 | 1012.1 |
| 20260831201057 | 22 | 229 | 4.8 | 0.0 | 0.00 | 0.00 | 0.00 | 80 | 1012.2 |
| 20260831200553 | 22 | 183 | 4.8 | 0.0 | 0.00 | 0.00 | 0.00 | 79 | 1012.2 |
| 20260831200057 | 22 | 262 | 4.8 | 0.0 | 0.00 | 0.00 | 0.00 | 78 | 1012.2 |
| 20260831195553 | 22 | 269 | 4.8 | 0.0 | 0.00 | 0.00 | 0.00 | 77 | 1012.2 |
| 20260831195053 | 22 | 178 | 4.8 | 0.0 | 0.00 | 0.00 | 0.00 | 79 | 1012.2 |
| 20260831194620 | 22 | 183 | 4.8 | 0.0 | 0.00 | 0.00 | 0.00 | 78 | 1012.2 |
| 20260831194052 | 22 | 123 | 4.8 | 0.0 | 0.00 | 0.00 | 0.00 | 80 | 1012.3 |
| 20260831193551 | 22 | 161 | 4.8 | 0.0 | 0.00 | 0.00 | 0.00 | 80 | 1012.3 |
| 20260831193051 | 22 | 211 | 4.8 | 0.0 | 0.00 | 0.00 | 0.00 | 80 | 1012.3 |
| 20260831192554 | 22 | 250 | 4.8 | 0.0 | 0.00 | 0.00 | 0.00 | 79 | 1012.3 |
| 20260831192049 | 22 | 194 | 4.8 | 0.0 | 0.00 | 0.00 | 0.00 | 80 | 1012.3 |
| 20260831191551 | 22 | 233 | 4.8 | 0.0 | 0.00 | 0.00 | 0.00 | 80 | 1012.3 |
| 20260831191050 | 22 | 141 | 4.8 | 0.0 | 0.00 | 0.00 | 0.00 | 80 | 1012.3 |
| 20260831190550 | 22 | 176 | 4.8 | 0.0 | 0.00 | 0.00 | 0.00 | 80 | 1012.3 |
| 20260831190053 | 22 | 177 | 3.2 | 0.0 | 0.00 | 0.00 | 0.00 | 82 | 1012.3 |
| 20260831185550 | 22 | 179 | 4.8 | 0.0 | 0.00 | 0.00 | 0.00 | 81 | 1012.4 |
| 20260831185049 | 22 | 181 | 4.8 | 0.0 | 0.00 | 0.00 | 0.00 | 82 | 1012.4 |
| 20260831184549 | 21 | 107 | 4.8 | 0.0 | 0.00 | 0.00 | 0.00 | 82 | 1012.4 |
| 20260831184049 | 21 | 163 | 4.8 | 0.0 | 0.00 | 0.00 | 0.00 | 82 | 1012.3 |
| 20260831183548 | 22 | 164 | 4.8 | 0.0 | 0.00 | 0.00 | 0.00 | 82 | 1012.3 |
| 20260831183048 | 22 | 172 | 4.8 | 0.0 | 0.00 | 0.00 | 0.00 | 81 | 1012.3 |
| 20260831182550 | 22 | 203 | 3.2 | 0.0 | 0.00 | 0.00 | 0.00 | 81 | 1012.3 |
| 20260831182047 | 22 | 175 | 3.2 | 0.0 | 0.00 | 0.00 | 0.00 | 83 | 1012.3 |
| 20260831181547 | 22 | 194 | 3.2 | 0.0 | 0.00 | 0.00 | 0.00 | 81 | 1012.3 |
| 20260831181047 | 22 | 186 | 3.2 | 0.0 | 0.00 | 0.00 | 0.00 | 83 | 1012.3 |
| 20260831180544 | 22 | 163 | 3.2 | 0.0 | 0.00 | 0.00 | 0.00 | 83 | 1012.3 |
| 20260831180045 | 22 | 171 | 3.2 | 0.0 | 0.00 | 0.00 | 0.00 | 82 | 1012.3 |
| 20260831175544 | 21 | 159 | 3.2 | 0.0 | 0.00 | 0.00 | 0.00 | 84 | 1012.3 |
| 20260831175045 | 21 | 159 | 3.2 | 0.0 | 0.00 | 0.00 | 0.00 | 85 | 1012.3 |
| 20260831174542 | 21 | 209 | 3.2 | 0.0 | 0.00 | 0.00 | 0.00 | 86 | 1012.3 |
| 20260831174040 | 21 | 156 | 3.2 | 0.0 | 0.00 | 0.00 | 0.00 | 87 | 1012.4 |
| 20260831173543 | 21 | 129 | 3.2 | 0.0 | 0.00 | 0.00 | 0.00 | 88 | 1012.4 |
| 20260831173037 | 20 | 160 | 3.2 | 0.0 | 0.00 | 0.00 | 0.00 | 89 | 1012.4 |
| 20260831172537 | 20 | 209 | 3.2 | 0.0 | 0.00 | 0.00 | 0.00 | 89 | 1012.4 |
| 20260831172036 | 20 | 144 | 3.2 | 0.0 | 0.00 | 0.00 | 0.00 | 91 | 1012.4 |
| 20260831171534 | 20 | 169 | 4.8 | 0.0 | 0.00 | 0.00 | 0.00 | 91 | 1012.4 |
| 20260831171033 | 19 | 119 | 3.2 | 0.0 | 0.00 | 0.00 | 0.00 | 93 | 1012.4 |
| 20260831170532 | 19 | 221 | 3.2 | 0.0 | 0.00 | 0.00 | 0.00 | 94 | 1012.4 |
| 20260831170032 | 18 | 253 | 3.2 | 0.0 | 0.00 | 0.00 | 0.00 | 94 | 1012.4 |
| 20260831165532 | 18 | 159 | 1.6 | 0.0 | 0.00 | 0.00 | 0.00 | 94 | 1012.4 |
| 20260831165031 | 18 | 196 | 1.6 | 0.0 | 0.00 | 0.00 | 0.00 | 95 | 1012.4 |
| 20260831164530 | 18 | 196 | 3.2 | 0.0 | 0.00 | 0.00 | 0.00 | 95 | 1012.4 |
| 20260831164030 | 18 | 208 | 3.2 | 0.0 | 0.00 | 0.00 | 0.00 | 95 | 1012.2 |
| 20260831163530 | 18 | 166 | 1.6 | 0.0 | 0.00 | 0.00 | 0.00 | 95 | 1012.2 |
| 20260831163032 | 18 | 183 | 1.6 | 0.0 | 0.00 | 0.00 | 0.00 | 95 | 1012.2 |
| 20260831162530 | 18 | 213 | 0.0 | 0.0 | 0.00 | 0.00 | 0.00 | 96 | 1012.2 |
| 20260831162030 | 17 | 173 | 1.6 | 0.0 | 0.00 | 0.00 | 0.00 | 95 | 1012.2 |
| 20260831161533 | 17 | 161 | 1.6 | 0.0 | 0.00 | 0.00 | 0.00 | 95 | 1012.2 |
| 20260831161029 | 18 | 153 | 1.6 | 0.0 | 0.00 | 0.00 | 0.00 | 96 | 1012.0 |
| 20260831160529 | 17 | 167 | 1.6 | 0.0 | 0.00 | 0.00 | 0.00 | 96 | 1012.0 |
| 20260831160029 | 17 | 168 | 1.6 | 0.0 | 0.00 | 0.00 | 0.00 | 96 | 1012.0 |
| 20260831155529 | 17 | 163 | 1.6 | 0.0 | 0.00 | 0.00 | 0.00 | 95 | 1012.0 |
| 20260831155029 | 18 | 141 | 1.6 | 0.0 | 0.00 | 0.00 | 0.00 | 96 | 1012.0 |
| 20260831154529 | 18 | 192 | 1.6 | 0.0 | 0.00 | 0.00 | 0.00 | 96 | 1012.0 |
| 20260831154031 | 18 | 178 | 1.6 | 0.0 | 0.00 | 0.00 | 0.00 | 96 | 1012.0 |
| 20260831153529 | 18 | 202 | 1.6 | 0.0 | 0.00 | 0.00 | 0.00 | 96 | 1012.0 |
| 20260831153027 | 18 | 196 | 1.6 | 0.0 | 0.00 | 0.00 | 0.00 | 96 | 1012.0 |
| 20260831152527 | 18 | 221 | 3.2 | 0.0 | 0.00 | 0.00 | 0.00 | 96 | 1011.9 |
| 20260831152027 | 18 | 179 | 3.2 | 0.0 | 0.00 | 0.00 | 0.00 | 96 | 1011.9 |
| 20260831151527 | 18 | 192 | 3.2 | 0.0 | 0.00 | 0.00 | 0.00 | 96 | 1011.9 |
| 20260831151026 | 17 | 205 | 1.6 | 0.0 | 0.00 | 0.00 | 0.00 | 96 | 1011.5 |
| 20260831150527 | 17 | 130 | 1.6 | 0.0 | 0.00 | 0.00 | 0.00 | 96 | 1011.5 |
| 20260831150026 | 17 | 150 | 1.6 | 0.0 | 0.00 | 0.00 | 0.00 | 96 | 1011.5 |
| 20260831145526 | 17 | 140 | 1.6 | 0.0 | 0.00 | 0.00 | 0.00 | 96 | 1011.5 |
| 20260831145027 | 17 | 165 | 1.6 | 0.0 | 0.00 | 0.00 | 0.00 | 96 | 1011.5 |
| 20260831144525 | 17 | 200 | 1.6 | 0.0 | 0.00 | 0.00 | 0.00 | 96 | 1011.5 |
| 20260831144025 | 17 | 134 | 1.6 | 0.0 | 0.00 | 0.00 | 0.00 | 96 | 1011.5 |
| 20260831143525 | 17 | 152 | 0.0 | 0.0 | 0.00 | 0.00 | 0.00 | 96 | 1011.5 |
| 20260831143025 | 17 | 167 | 0.0 | 0.0 | 0.00 | 0.00 | 0.00 | 96 | 1011.5 |
| 20260831142524 | 17 | 167 | 0.0 | 0.0 | 0.00 | 0.00 | 0.00 | 96 | 1011.3 |
| 20260831142024 | 17 | 167 | 0.0 | 0.0 | 0.00 | 0.00 | 0.00 | 96 | 1011.3 |
| 20260831141524 | 17 | 167 | 0.0 | 0.0 | 0.00 | 0.00 | 0.00 | 96 | 1011.3 |
| 20260831141024 | 17 | 167 | 0.0 | 0.0 | 0.00 | 0.00 | 0.00 | 96 | 1010.9 |
| 20260831140527 | 17 | 167 | 0.0 | 0.0 | 0.00 | 0.00 | 0.00 | 95 | 1010.9 |
| 20260831140026 | 17 | 188 | 0.0 | 0.0 | 0.00 | 0.00 | 0.00 | 96 | 1010.9 |
| 20260831135523 | 17 | 112 | 0.0 | 0.0 | 0.00 | 0.00 | 0.00 | 96 | 1010.9 |
| 20260831135023 | 17 | 71 | 0.0 | 0.0 | 0.00 | 0.00 | 0.00 | 96 | 1010.9 |
| 20260831134524 | 16 | 71 | 0.0 | 0.0 | 0.00 | 0.00 | 0.00 | 95 | 1010.9 |
| 20260831134022 | 16 | 71 | 0.0 | 0.0 | 0.00 | 0.00 | 0.00 | 95 | 1010.9 |
| 20260831133521 | 16 | 71 | 0.0 | 0.0 | 0.00 | 0.00 | 0.00 | 95 | 1010.9 |
| 20260831133021 | 16 | 71 | 0.0 | 0.0 | 0.00 | 0.00 | 0.00 | 95 | 1010.9 |
| 20260831132521 | 16 | 71 | 0.0 | 0.0 | 0.00 | 0.00 | 0.00 | 94 | 1010.7 |
| 20260831132020 | 16 | 71 | 0.0 | 0.0 | 0.00 | 0.00 | 0.00 | 94 | 1010.7 |
| 20260831131533 | 17 | 71 | 0.0 | 0.0 | 0.00 | 0.00 | 0.00 | 95 | 1010.7 |
| 20260831131023 | 17 | 71 | 0.0 | 0.0 | 0.00 | 0.00 | 0.00 | 95 | 1010.3 |
| 20260831130519 | 17 | 71 | 0.0 | 0.0 | 0.00 | 0.00 | 0.00 | 95 | 1010.3 |
| 20260831130019 | 16 | 71 | 0.0 | 0.0 | 0.00 | 0.00 | 0.00 | 94 | 1010.3 |
| 20260831125519 | 16 | 71 | 0.0 | 0.0 | 0.00 | 0.00 | 0.00 | 94 | 1010.1 |
| 20260831125019 | 17 | 71 | 0.0 | 0.0 | 0.00 | 0.00 | 0.00 | 95 | 1010.1 |
| 20260831124525 | 17 | 71 | 0.0 | 0.0 | 0.00 | 0.00 | 0.00 | 94 | 1010.1 |
| 20260831124019 | 16 | 71 | 0.0 | 0.0 | 0.00 | 0.00 | 0.00 | 93 | 1010.1 |
| 20260831123516 | 17 | 71 | 0.0 | 0.0 | 0.00 | 0.00 | 0.00 | 94 | 1010.1 |
| 20260831123016 | 17 | 71 | 0.0 | 0.0 | 0.00 | 0.00 | 0.00 | 94 | 1010.1 |
| 20260831122516 | 17 | 71 | 0.0 | 0.0 | 0.00 | 0.00 | 0.00 | 94 | 1010.2 |
| 20260831122019 | 17 | 71 | 0.0 | 0.0 | 0.00 | 0.00 | 0.00 | 94 | 1010.2 |
| 20260831121516 | 17 | 71 | 0.0 | 0.0 | 0.00 | 0.00 | 0.00 | 94 | 1010.2 |
| 20260831121017 | 17 | 71 | 0.0 | 0.0 | 0.00 | 0.00 | 0.00 | 94 | 1010.0 |
| 20260831120515 | 17 | 71 | 0.0 | 0.0 | 0.00 | 0.00 | 0.00 | 94 | 1010.0 |
| 20260831120017 | 17 | 71 | 1.6 | 0.0 | 0.00 | 0.00 | 0.00 | 94 | 1010.0 |
| 20260831115516 | 17 | 71 | 1.6 | 0.0 | 0.00 | 0.00 | 0.00 | 94 | 1010.0 |
| 20260831115016 | 17 | 67 | 1.6 | 0.0 | 0.00 | 0.00 | 0.00 | 94 | 1010.0 |
| 20260831114515 | 17 | 80 | 1.6 | 0.0 | 0.00 | 0.00 | 0.00 | 94 | 1010.0 |
| 20260831114018 | 17 | 81 | 1.6 | 0.0 | 0.00 | 0.00 | 0.00 | 94 | 1010.0 |
| 20260831113515 | 17 | 80 | 0.0 | 0.0 | 0.00 | 0.00 | 0.00 | 93 | 1010.0 |
| 20260831113020 | 17 | 80 | 1.6 | 0.0 | 0.00 | 0.00 | 0.00 | 94 | 1010.0 |
| 20260831112518 | 17 | 94 | 0.0 | 0.0 | 0.00 | 0.00 | 0.00 | 94 | 1010.0 |
| 20260831112014 | 17 | 65 | 0.0 | 0.0 | 0.00 | 0.00 | 0.00 | 94 | 1010.0 |
| 20260831111516 | 17 | 65 | 0.0 | 0.0 | 0.00 | 0.00 | 0.00 | 94 | 1010.0 |
| 20260831111014 | 17 | 65 | 1.6 | 0.0 | 0.00 | 0.00 | 0.00 | 94 | 1010.0 |
| 20260831110516 | 17 | 65 | 1.6 | 0.0 | 0.00 | 0.00 | 0.00 | 94 | 1010.0 |
| 20260831110014 | 17 | 65 | 1.6 | 0.0 | 0.00 | 0.00 | 0.00 | 94 | 1010.0 |
| 20260831105515 | 17 | 65 | 1.6 | 0.0 | 0.00 | 0.00 | 0.00 | 94 | 1010.0 |
| 20260831105014 | 17 | 222 | 1.6 | 0.0 | 0.00 | 0.00 | 0.00 | 94 | 1010.0 |
| 20260831104513 | 17 | 222 | 0.0 | 0.0 | 0.00 | 0.00 | 0.00 | 94 | 1010.0 |
| 20260831104012 | 17 | 222 | 0.0 | 0.0 | 0.00 | 0.00 | 0.00 | 94 | 1010.0 |
| 20260831103515 | 17 | 222 | 0.0 | 0.0 | 0.00 | 0.00 | 0.00 | 94 | 1010.0 |
| 20260831103012 | 17 | 222 | 0.0 | 0.0 | 0.00 | 0.00 | 0.00 | 93 | 1010.0 |
| 20260831102511 | 17 | 222 | 0.0 | 0.0 | 0.00 | 0.00 | 0.00 | 93 | 1010.0 |
| 20260831102011 | 17 | 222 | 0.0 | 0.0 | 0.00 | 0.00 | 0.00 | 93 | 1010.0 |
| 20260831101511 | 17 | 222 | 0.0 | 0.0 | 0.00 | 0.00 | 0.00 | 93 | 1010.0 |
| 20260831101011 | 17 | 222 | 0.0 | 0.0 | 0.00 | 0.00 | 0.00 | 93 | 1010.1 |
| 20260831100509 | 17 | 222 | 0.0 | 0.0 | 0.00 | 0.00 | 0.00 | 93 | 1010.1 |
| 20260831100009 | 17 | 222 | 0.0 | 0.0 | 0.00 | 0.00 | 0.00 | 93 | 1010.1 |
| 20260831095509 | 17 | 222 | 0.0 | 0.0 | 0.00 | 0.00 | 0.00 | 92 | 1010.1 |
| 20260831095008 | 17 | 222 | 0.0 | 0.0 | 0.00 | 0.00 | 0.00 | 92 | 1010.1 |
| 20260831094509 | 17 | 222 | 0.0 | 0.0 | 0.00 | 0.00 | 0.00 | 92 | 1010.1 |
| 20260831094008 | 17 | 166 | 1.6 | 0.0 | 0.00 | 0.00 | 0.00 | 92 | 1010.1 |
| 20260831093507 | 17 | 208 | 1.6 | 0.0 | 0.00 | 0.00 | 0.00 | 91 | 1010.1 |
| 20260831093008 | 18 | 132 | 0.0 | 0.0 | 0.00 | 0.00 | 0.00 | 91 | 1010.1 |
| 20260831092509 | 18 | 163 | 1.6 | 0.0 | 0.00 | 0.00 | 0.00 | 91 | 1009.9 |
| 20260831092006 | 18 | 169 | 1.6 | 0.0 | 0.00 | 0.00 | 0.00 | 91 | 1009.9 |
| 20260831091506 | 18 | 168 | 1.6 | 0.0 | 0.00 | 0.00 | 0.00 | 90 | 1009.9 |
| 20260831091005 | 18 | 148 | 0.0 | 0.0 | 0.00 | 0.00 | 0.00 | 91 | 1010.2 |
| 20260831090505 | 18 | 202 | 0.0 | 0.0 | 0.00 | 0.00 | 0.00 | 90 | 1010.2 |
| 20260831090007 | 18 | 202 | 1.6 | 0.0 | 0.00 | 0.00 | 0.00 | 89 | 1010.2 |
| 20260831085503 | 18 | 202 | 1.6 | 0.0 | 0.00 | 0.00 | 0.00 | 88 | 1010.2 |
| 20260831085006 | 18 | 202 | 0.0 | 0.0 | 0.00 | 0.00 | 0.00 | 86 | 1010.2 |
| 20260831084503 | 18 | 69 | 0.0 | 0.0 | 0.00 | 0.00 | 0.00 | 84 | 1010.2 |
| 20260831084002 | 18 | 69 | 0.0 | 0.0 | 0.00 | 0.00 | 0.00 | 81 | 1010.2 |
| 20260831083502 | 18 | 69 | 0.0 | 0.0 | 0.00 | 0.00 | 0.00 | 79 | 1010.2 |
| 20260831083003 | 18 | 69 | 0.0 | 0.0 | 0.00 | 0.00 | 0.00 | 76 | 1010.2 |
| 20260831082501 | 18 | 69 | 0.0 | 0.0 | 0.00 | 0.00 | 0.00 | 74 | 1010.3 |
| 20260831082100 | 18 | 69 | 0.0 | 0.0 | 0.00 | 0.00 | 0.00 | 75 | 1010.3 |
| 20260831081600 | 18 | 69 | 1.6 | 0.0 | 0.00 | 0.00 | 0.00 | 73 | 1010.3 |